Location: Newark
(7.0858°N, 171.3717°E)
Time: 09:35:54
(UTC+00:00)

S-56A Canister/Altair - Pass Details

Date: 26 November 2020
Orbit: 633 x 2499 km, 38.9° (Epoch: 27 January)

Event Time Altitude Azimuth Distance (km) Brightness Sun altitude
Rises 04:44:19 0° 217° (SW) 6,144 13.2 19.8°
Reaches altitude 10° 04:48:30 10° 213° (SSW) 5,161 12.9 18.8°
Maximum altitude 05:03:07 56° 139° (SE) 2,607 10.3 15.5°
Drops below altitude 10° 05:14:41 10° 65° (ENE) 4,185 10.7 12.9°
Sets 05:17:40 0° 60° (ENE) 4,952 11.0 12.2°
